TIANHUI 6B

Satellite information

Favourite Embed

Satellite Type and Status

PAYLOADIN ORBIT

Key statistics

Satellite TIANHUI 6B at a glance.

Uptime

1011

Days in orbit

Revolutions

≈ 14.0

Per day

Orbit

SSO

Sun Synchronous Orbit

Inclination

99.0

Latest

Satellite identification and parameters

Extended collection of information and parameters for TIANHUI 6B.

Object identification

Identified? True

Debris? False

Object name: TIANHUI 6B

International designator: 2023-030D

Object number (NORAD): 55839

Object ID (CCSDS): 55839

Country: PEOPLES REPUBLIC OF CHINA (PRC)

Current information (Y/N): Y

RCS size: LARGE

Orbital parameters

Period: 102.758 minutes

Inclination: 99.0173 deg

SMA: 7267.242 km

Apoapsis: 889.619 km

Periapsis: 888.595 km

RAAN: 351.8439 deg

Eccentricy: 0.00007044

Argument of periapsis: 7.4151 deg

Mean anomaly: 352.7025 deg

Mean motion: 14.01355425 rev/day

Mean motion (dot): 0.00000317 rev/day2

B* drag term: 0.00023976703 1/REarth

Two-line elements (TLE)

Creation date: Dec. 12, 2025, 10:14 a.m.

Reference frame: TEME

Reference center: EARTH

Epoch: Dec. 12, 2025, 7:10 a.m. UTC

TLE line 0: 0 TIANHUI 6B

TLE line 1: 1 55839U 23030D 25346.29920317 .00000317 00000-0 23977-3 0 9993

TLE line 2: 2 55839 99.0173 351.8439 0000704 7.4151 352.7025 14.01355425141216

Live tracking on map

Real-time ground track for satellite TIANHUI 6B.

In-orbit conjunctions

There are no conjunctions computed for TIANHUI 6B, at the moment. Check back to stay up to date, as we update our databases every day.

Go to all conjunctions

Associated space launch

Described as satellites for cartography purposes, details TBD.

TIANHUI 6B was lifted into orbit during the mission ‘Long March 4C | Tianhui-6 A/B’, on board a Long March 4C space rocket.

The launch took place on March 9, 2023, 10:41 p.m. from Launch Complex 9.

For more information about the launch, click the button.

Launch to space Long March 4C | Tianhui-6 A/B
Long March 4C | Tianhui-6 A/B

Agency: N/A

Status: Launch Successful

Launch date: March 9, 2023, 10:41 p.m. UTC

Rocket: Long March 4C

Launch pad: Launch Complex 9

Location: Taiyuan Satellite Launch Center, People's Republic of China

...

Latest news about this satellite

There are no fresh news available about this satellite. Check back as we update our databases every day.


Newsletter sign-up

Weekly statistics, charts and insights to help you stay on top of the space industry.